Estación de Combarbala

Ultimos registro cada 15 minutos 38
Estación Fecha / Hora Temperatura Humedad Lluvia Velocidad Dirección Radiación Presion
38 Combarbala 04-05-2026 09:15 22,7 16,9 0 0 97 323,1 909,9
37 Combarbala 04-05-2026 09:00 21,3 18,4 0 0 97 279,4 909,9
36 Combarbala 04-05-2026 08:45 21 18,4 0 0 97 235,6 909,9
35 Combarbala 04-05-2026 08:30 20,4 18,6 0 0 97 191,9 909,8
34 Combarbala 04-05-2026 08:15 18,8 19,1 0 0 97 149,4 909,8
33 Combarbala 04-05-2026 08:00 16,8 20,6 0 0 97 104,4 909,9
32 Combarbala 04-05-2026 07:45 14,5 22,2 0 0 97 9,4 909,9
31 Combarbala 04-05-2026 07:30 14,1 22,2 0 0 97 5,6 909,8
30 Combarbala 04-05-2026 07:15 14,5 21,8 0 0 97 1,9 909,8
29 Combarbala 04-05-2026 07:00 14,1 22,6 0 0 97 0,6 909,7
28 Combarbala 04-05-2026 06:45 15,1 21,5 0 0 97 0,6 909,6
27 Combarbala 04-05-2026 06:30 14,4 22,4 0 0 97 0,6 909,5
26 Combarbala 04-05-2026 06:15 14,7 21,9 0 0 97 0,6 909,4
25 Combarbala 04-05-2026 06:00 14,7 22,5 0 0 97 0,6 909,4
24 Combarbala 04-05-2026 05:45 14,6 22,2 0 0 97 0,6 909,5
23 Combarbala 04-05-2026 05:30 14,9 21,6 0 0 97 0,6 909,3
22 Combarbala 04-05-2026 05:15 14,9 22,3 0 0 97 0,6 909,3
21 Combarbala 04-05-2026 05:00 15,5 22,1 0 0 97 0,6 909,1
20 Combarbala 04-05-2026 04:45 15,3 21,8 0 0 97 0,6 909,1
19 Combarbala 04-05-2026 04:30 15,5 21,5 0 0 97 0,6 909,2
18 Combarbala 04-05-2026 04:15 15,5 21,6 0 0 97 0,6 909,3
17 Combarbala 04-05-2026 04:00 15,8 20,8 0 0 97 0,6 909,2
16 Combarbala 04-05-2026 03:45 15,8 21,3 0 0 97 0,6 909,3
15 Combarbala 04-05-2026 03:30 15,2 22,2 0 0 97 0,6 909,2
14 Combarbala 04-05-2026 03:15 15,4 22,1 0 0 97 0,6 909,5
13 Combarbala 04-05-2026 03:00 15,5 23,1 0 0 97 0,6 909,5
12 Combarbala 04-05-2026 02:45 15,3 23,4 0 0 97 0,6 909,6
11 Combarbala 04-05-2026 02:30 15,2 23,6 0 0 97 0,6 909,7
10 Combarbala 04-05-2026 02:15 15 24,3 0 0 97 0,6 909,9
9 Combarbala 04-05-2026 02:00 15,2 23,8 0 0 97 0,6 909,9
8 Combarbala 04-05-2026 01:45 15,2 24,1 0 0 97 0,6 910
7 Combarbala 04-05-2026 01:30 14,8 25 0 0 97 0,6 910,3
6 Combarbala 04-05-2026 01:15 15,1 24,6 0 0 97 0,6 910,3
5 Combarbala 04-05-2026 01:00 14,9 24,6 0 0 97 0,6 910,3
4 Combarbala 04-05-2026 00:45 14,8 24,7 0 0 97 0,6 910,5
3 Combarbala 04-05-2026 00:30 14,8 24,6 0 0 97 0,6 910,4
2 Combarbala 04-05-2026 00:15 15 24,5 0 0 97 0,6 910,7
1 Combarbala 04-05-2026 00:00 15,4 23,3 0 0 97 0,6 910,5